Location: *
(46.1866°S, 178.5290°W)
Time: 09:42:07
(UTC+00:00)

Cosmos 1980 - Pass Details

Date: 19 May 2021
Orbit: 838 x 848 km, 71.0° (Epoch: 14 June)

Event Time Altitude Azimuth Distance (km) Brightness Sun altitude
Rises 04:56:11 0° 348° (NNW) 3,398 7.4 -5.2°
Reaches altitude 10° 04:58:38 10° 351° (N) 2,469 6.6 -5.6°
Maximum altitude 05:04:12 59° 69° (ENE) 978 3.9 -6.5°
Drops below altitude 10° 05:09:49 10° 147° (SSE) 2,492 5.7 -7.4°
Enters shadow 05:11:57 - 150° (SSE) 3,296 6.3 -7.8°
